[Date Prev][Date Next][Thread Prev][Thread Next][Date Index][Thread Index]
[jamsat-news:680] jas2info #62
=========================   最新情報   ==============================
        Last updated :Fri.7-Nov.-97 21:00 (JST) #62
====================================================================   
     衛星情報 FOシリーズの軌道要素、テレメトリ、QSOの状況等をま
   とめてみました.
  1)FO−29(ふじ3号)は11月7日 (金)の17:21(JST)の
     パスではFMでデジトーカの運用がされております.「 This is
  JAS−1b」と郭公の鳴き声です.さらにアナログCWテレメトリの
    運用が同時に行われています.CWテレメトリ運用は19:04(JST)
    のパスではもう行われていませんでした.
         
  ■ 軌道要素1:「jamsatーkeps:631」より
                 SB KEPS @ AMSAT  $ORBS-304.N
                 2Line Orbital Elements 304.AMSAT
   HR AMSAT ORBITAL ELEMENTS FOR AMATEUR SATELLITES IN NASA FORMAT
   FROM WA5QGD FORT WORTH,TX October 31, 1997
   SEND SUBSCRIBE/UNSUBSCRIBE TO listserv@amsat.org ONLY
   BID: ORBS-304.N 
  DECODE 2-LINE ELSETS WITH THE FOLLOWING KEY:
  1 AAAAAU 00  0  0 BBBBB.BBBBBBBB  .CCCCCCCC  00000-0  00000-0 0  DDDZ
  2 AAAAA EEE.EEEE FFF.FFFF GGGGGGG HHH.HHHH III.IIII JJ.JJJJJJJJKKKKKZ
  KEY: A-CATALOGNUM B-EPOCHTIME C-DECAY D-ELSETNUM E-INCLINATION F-RAAN
  G-ECCENTRICITY H-ARGPERIGEE I-MNANOM J-MNMOTION K-ORBITNUM Z-CHECKSUM
  TO ALL RADIO AMATEURS BT
  
  FO-29
  1 24278U 96046B   97303.13446568 -.00000024  00000-0  11719-4 0  1179
  2 24278  98.5214 325.8611 0351787 196.3094 162.6489 13.52634288 59364
 ■ 軌道要素2:「jamsatーkeps:632」より
                  SB KEPS @ AMSAT  $ORBS-304.O
                  Orbital Elements  304.OSCAR
   HR AMSAT ORBITAL ELEMENTS FOR OSCAR SATELLITES
   FROM WA5QGD FORT WORTH,TX October 31, 1997
   SEND SUBSCRIBE/UNSUBSCRIBE TO listserv@amsat.org ONLY
   BID: ORBS-304.O
   TO ALL RADIO AMATEURS BT
  Satellite: FO-29
  Catalog number: 24278
  Epoch time:      97303.13446568
  Element set:     117
  Inclination:       98.5214 deg
  RA of node:       325.8611 deg
  Eccentricity:    0.0351787
  Arg of perigee:   196.3094 deg
  Mean anomaly:     162.6489 deg
  Mean motion:   13.52634288 rev/day
  Decay rate:       -2.4e-07 rev/day^2
  Epoch rev:            5936
  Checksum:              339
 -----------------------------------------------------------
  1 )FO−29(ふじ3号)の 11月7日(金)のJAアナログモード
   で運用中の1分毎の連続ビーコン波にのって送信されるCWテレメトリ
   の一部分です.
  AS6047C    7NOV97
  JST  17:24 - 17:35
  Freq. 435.800 - 435.792 MHz
                                                 92 8F A2 7F 97 97 95 96 96 
 HI HI E6 C7 90 DD 8B F8 10 0D 00 09 47 74 68 65 92 8F A6 6B 97 97 95 96 96 
 HI HI E6 C7 90 DD 95 F9 10 0D 75 29 72 77 65 64 92 8F A2 77  7 97 95 96 96 
 HI HI E6 C7 90 DD 96 FA 10 0D 00 09 74 77 6E 62 92 8F 9D 69 97  7 95 96 96 
 HI HI E6 C7 90 DD 9C FA 10 0D 00 09 84 78 6C 64 91 8F A5 6E 97 97 95 96 96 
 HI HI E6 C7 81 DD 95 FA 10 0D 0O 09 80 6B 69 66 91 8F A6 7D 98 97 95 97 96 
 HI HI E6 C7 90 DD 66 FB 10    
 2) CWアナログテレメトリ換算値例	FO−29(ふじ3号)	
    上記テレメトリの2行目を換算   
  テレメトリ	     内   容		換算値	単 位
    3C	磁気センサーZ軸=	34803.9	[ nT ]
    3D	磁気センサーX軸=	56862.7	[ nT ]
    4A	太陽電池発生電流=	 1019.6	[ mA ]
    4B	B充放電電流	=	  -20.4	[ mA ]
    4C	B端子電圧	=	   15.7	[ V ]
    4D	B中間端子電圧	=	    6.9	[ V ]
    5A	バス電圧	=	   16.3	[ V ]
    5B	JTA送信電力	= 	  597.4	[ mW ]
    5C 	構体温度1	=	   23.2	[ ℃ ]
    5D	構体温度2	=	   23.2	[ ℃ ]
    6A	構体温度3	=	   24.0	[ ℃ ]
    6B	構体温度4	=	   23.6	[ ℃ ] 
    6C	Bセル温度	=	   23.6	[ ℃ ] 
    *Windows 95 のoffice 97 Excel にて計算.
 =====================================================================  
   3)FO-20(ふじ2号)は#58で説明しましたようにCWテレメトリーが長い
     断続的電信音に変わり、本日 JST 11:31のパスでも復帰できません
     でした.しかしアナログQSOは、JAモードの運用で順調に作動しています.
     アナログモードにてのQSOや思わぬDXが楽しめます.
      11月5日(水)には切れ目の無い連続音になっていました.この信号を逆に
      活用すればドップラー現象の正確な観測や見本として使えるのではないでしょ
      うか.
  ■ 軌道要素1 :出典は「ふじ3号」に同じ. 
  FO-20
  1 20480U 90013C   97302.83679837  .00000043  00000-0  16071-3 0 00243
  2 20480 099.0622 239.1916 0541051 072.6369 293.3144 12.83240638361973
  ■ 軌道要素2 :出典は「ふじ3号」に同じ. 
  Satellite: FO-20
  Catalog number: 20480
  Epoch time:      97302.83679837
  Element set:    0024
  Inclination:      099.0622 deg
  RA of node:       239.1916 deg
  Eccentricity:    0.0541051
  Arg of perigee:   072.6369 deg
  Mean anomaly:     293.3144 deg
  Mean motion:   12.83240638 rev/day
  Decay rate:        4.3e-07 rev/day^2
  Epoch rev:           36197
  Checksum:              309
   ----------------------------------------------------------------  
 4)  当局が取得したJAS−1bの正常なテレメトリの最後です.
    
   10月13日(月) JST  14:31 のパスの 一部分です。
   AS35979C  13OCT97
   JST 14:31 - 14:48 
   HI HI 139 148 169 170 285 284 250 261 352 352 354 352 401 435 402 400 500
         522 500 500 
   HI HI 137 148 169 170 285 284 250 261 352 352 354 352 401 435 402 400 500
         522 500 500 
   HI HI 148 148 169 170 285 284 250 261 352 352 354 352 401 435 402 400 500
         522 500 500  
   HI HI 142 148 169 170 285 284 250 261 352 352 354 352 401 435 402 400 500
         522 500 500 
  5)上記テレメトリの上から1行目を換算した例です.
       CWアナログテレメトリ換算値  FOー20(ふじ2号)    
   1A	太陽電池発生電流	=	860.0	[mA]
   1B	バッテリ充放電電流	=	-80.0	[mA]
   1C	バッテリ端子電圧	=	 16.1	[ V ]
   1D	バッテリ1/2電圧	=	  7.3	[ V ]
   2A	バ ス 電圧	        =	 17.8	[ V ]
   2B	+5V安定化電圧	=  	  5.3	[ V ]
   2C	JTA送信出力	        =     1270.7	[ mW ]
   2D	校正電圧	        =	  1.3	[ V] 
   3A	バッテリ温度	        =	 15.0	[ ℃ ]
   3B	構体温度ー1	        =  	 15.0	[ ℃ ]
   3C	構体温度ー2	        =	 12.0	[ ℃ ]
   3D	構体温度ー3	        =	 15.0	[ ℃ ]   
  * 換算にはWINDOWS 95 のoffice 97EXCEL を使用.
 
 =========================   JARL運用情報   =========================
   *JARL NEWS 11月号22ページにFO−29/ふじ3号,FO−20/
    ふじ2号の来年の1月までの長期運用予定について記載されていましたので
    ご紹介します.
    デジトーカの運用がかなり強化されています.
        ■ ふじ3号/FO−29 ■     
         月 日           切替時刻       運用モード
    11月  7日(金)  08:29(17:29)    デジトーカ
          10日(月)   07:31(16:31)    JD9600
          14日(金)  07:23(16:23)    JA
          21日(金)  08:01(17:01)    デジトーカ
          25日(火)  07:53(16:53)    JD1200
          28日(金)  08:39(17:39)    JD9600
    12月  5日(金)  07:33(16:33)    JA                   
          12日(金)  08:11(17:11)    JD9600 
          19日(金)  08:49(17:49)    デジトーカ
          26日(金)  07:42(16:42)    JA
    1998年(平成10年)
      1月  9日(金)  07:14(16:14)    JD1200
          16日(金)  07:52(16:52)    JD9600
          23日(金)  08:30(17:30)    JA
          30日(金)  07:24(16:24)    JD1200
 *切替時刻はUTC(協定世界時)で表示しています.(   )内の時刻は
    JST(日本標準時)です.
     モードの表記は次のとうりです.
       JA:アナログ系運用
       JD1200:ディジタル系1200bps PSKメールボックス運用(SSB)
       JD9600:ディジタル系9600bps FSKメールボックス運用(FM)
       デジトーカ         FM音声メッセージ送信
   同時にデジトーカの受信方法が詳しく説明されています。
    ■ ふじ2号/FO−20 ■
     「ふじ2号」はアナログ系の連続運用とします.   
                                               
   =============   JAS-2 (ふじ3号)と現在までの情報   ===========  
  A.電話によるふじ3号の運用情報
      社団法人日本アマチュア連盟によるサービス
           TEL .   03− 3942 − 1000
  B.アマチュア無線FAXサービス
      JARLによるふじ3号の軌道情報(オービットカレンダー)
         FAX No.  03− 3233 −0055
  C.WWWブラウザで情報を簡単に見れる人のためにJAS−2
     ふじ3号の衛星としての運用されるまでの名前)の概要、打ち上げ
     までの状況、運用中における状況を説明したホームページを紹介し
     ておきます.
    1)社団法人日本アマチュア無線連盟(JARL)のホームページ
          http://www.jarl.or.jp/
    2)宇宙開発事業団(NASDA)ホームページ 
          http://www.nasda.go.jp/
         打上げ衛星 :地球観測プラットフォーム技術衛星(ADEOS) 
                       アマチュア衛星3号(JAS-2)
          http://yyy.tksc.nasda.go.jp/Home/Press/Press-j/jas-2_j.html                                                       
  D.JAMSATによる軌道情報の活用
        JAMSATのホームページまたはjamsat−kepsの軌道要素より
      衛星の軌道情報を得る.      
     JAMSATホームページURL    http://www.jamsat.or.jp
       上記ホームページでは各地で行われるアマチュア通信衛星に関する
      ミューティングのお知らせや世界のアマチュア衛星に関する情報が
      満載されています.
  =========================  その他の情報  ===============================
 [jamsat-bb:2989]にJE9PEL/1の脇田さんがFO−29について投稿されて
 いましたので転載しておきます.
  (1) FO-29
  デジトーカの内容は、女性の声で「This is JAS-2, カッコー.」で、何度
  もこれを繰り返し、アンプなしでも明瞭に聞き取ることができました。
  1 24278U 96046B   97303.13446568 -.00000024  00000-0  11719-4 0  1179
  2 24278  98.5214 325.8611 0351787 196.3094 162.6489 13.52634288 59364
                       AOS      TCA      LOS
              JST     9:04        -     9:14 (7.4km/s)
               Az      345        -      262 (北西〜南西)
               El        0        7        0 (Max 7)
            Hight      949      867      830 (Km)
            Range     3671     2811     3465 (Km)
             Freq  435.916  435.910  435.904 (MHz FM)
  Name  : JE9PEL/1 脇田
 Mail  : JE9PEL@jamsat.or.jp
 URL   : http://www.asahi-net.or.jp/~EI7M-WKT/
 QTH   : Yokohama, Japan
 Date  : 5 Nov. '97 
 =========================================================================
       JAMSATのメンバーのご協力によりJH6MME(高山 秀造)が
    執筆・編集を担当しております.ご指摘の意見、疑問やこのようにしたら
    というアイデアがありましたら小さなことでもかまいませんので気軽に下
    記アドレスまでご連絡ください.jamsat−newsからjas2
    infoへの転載をJH4PHW局坂井さんに担当して頂いております.
                    Eーmail :   jh6mme@jamsat.or.jp : jh4phw@jamsat.or.jp             
 ===============================   END  ===============================